Location: Archemont
(49.1579°N, 1.7598°E)
Time: 10:15:32
(UTC+00:00)

deb Explorer IX - Pass Details

Date: 22 April 2024
Orbit: 513 x 891 km, 38.7° (Epoch: 23 May)

Event Time Altitude Azimuth Distance (km) Brightness Sun altitude
Rises 15:28:42 0° 262° (W) 3,516 ? 32.4°
Reaches altitude 10° 15:33:10 10° 234° (SW) 2,567 ? 31.7°
Maximum altitude 15:35:20 12° 213° (SSW) 2,414 ? 31.4°
Drops below altitude 10° 15:37:28 10° 192° (SSW) 2,532 ? 31.1°
Sets 15:41:47 0° 163° (SSE) 3,406 ? 30.4°
